Regional Weather Roundup
Issued by NWS Huntsville, AL

Home | Current Version | Previous Version | Text Only | Print | Product List | Glossary On
Versions: 1 2 3 4 5 6 7 8 9 10 11 12 13 14 15 16 17 18 19 20 21 22 23 24 25 26 27 28 29 30 31 32 33 34 35 36 37 38 39 40 41 42 43 44 45 46 47 48 49 50
000
ASUS44 KHUN 300910
RWRHUN

WEATHER ROUNDUP FOR THE TENNESSEE VALLEY
NATIONAL WEATHER SERVICE HUNTSVILLE AL
400 AM CDT THU JUL 30 2015

ALZ001>004-301000-
NORTHWEST ALABAMA

CITY           SKY/WX    TMP DP  RH WIND       PRES   REMARKS
COURTLAND HCN    N/A     75 N/A N/A CALM        N/A
RUSSELLVILLE     N/A     72 N/A N/A MISG        N/A
SHOALS AIRPORT CLEAR     76  73  91 CALM      30.01S
SHOALS TVA RES   N/A     75 N/A N/A MISG        N/A
$$

ALZ005>007-016-301000-
NORTH CENTRAL ALABAMA

CITY           SKY/WX    TMP DP  RH WIND       PRES   REMARKS
CULLMAN AG STN   N/A     75 N/A N/A N5          N/A
DECATUR AP     CLEAR     75  74  96 CALM      30.00S
HUNTSVILLE AP  CLEAR     77  73  87 CALM      29.99S FOG
HUN NWS/UAH      N/A     76  73  88 S3          N/A
MERIDIANVILLE  CLOUDY    73  72  94 CALM      30.00F FOG
REDSTONE ARSN  CLEAR     73  73 100 S3        29.99S FOG
VINEMONT AP    FAIR      73  72  97 CALM      30.03S
$$

ALZ008>010-301000-
NORTHEAST ALABAMA

CITY           SKY/WX    TMP DP  RH WIND       PRES   REMARKS
ALBERTVILLE    CLEAR     75  75 100 CALM      30.01R FOG
FORT PAYNE     CLEAR     75  72  88 CALM      30.00S FOG
SCOTTSBORO AP  MOCLDY    75  75 100 CALM      30.00S
SCOTTSBORO HCN   N/A     75 N/A N/A MISG        N/A
VALLEY HEAD      N/A     73 N/A N/A MISG        N/A
$$

TNZ076-096-097-301000-
SOUTHEASTERN MIDDLE TENNESSEE

CITY           SKY/WX    TMP DP  RH WIND       PRES   REMARKS
TULLAHOMA      CLEAR     73  68  83 CALM      30.04S
WINCHESTER     CLEAR     73  72  94 CALM      30.02S
$$

...SURROUNDING SITES...

CITY           SKY/WX    TMP DP  RH WIND       PRES   REMARKS
ATLANTA        MOCLDY    78  73  84 SE5       29.96S
ANNISTON       CLEAR     76  74  93 CALM      29.98R
BIRMINGHAM     CLEAR     76  75  97 CALM      30.01R
CHATTANOOGA    CLEAR     77  74  90 CALM      29.99S
DALTON         PTCLDY    73  73 100 CALM      29.99S
GADSDEN        CLEAR     75  70  83 CALM      29.97S
GOLDEN TRNGL   CLEAR     75  72  88 CALM      29.98F
HALEYVILLE     FAIR      72  72 100 CALM      30.04F FOG
JACKSON TN     CLEAR     79  75  87 N5        30.03R
MEMPHIS        CLEAR     83  75  77 N7        30.03R HX  90
NASHVILLE      MOCLDY    77  74  90 NW7       30.03R
ROME           PTCLDY    77  73  87 CALM      29.98R
SAVANNAH       CLEAR     73  32  21 CALM      30.03R
TUPELO         CLEAR     76  74  93 CALM      29.99F
TUSCALOOSA     CLEAR     75  73  93 CALM      29.98S
$$

...GULF COAST WEATHER...

CITY           SKY/WX    TMP DP  RH WIND       PRES   REMARKS
GULFPORT       MOCLDY    77  74  90 NW3       29.96F
MOBILE         PTCLDY    76  75  97 NW5       29.97S
GULF SHORES    SUNNY     77  75  93 NW3       29.94F
PENSACOLA      CLEAR     78  74  87 NW6       29.94R
DESTIN         PTCLDY    80  76  87 N5        29.93S
PANAMA CITY    MOCLDY    79  77  94 CALM      29.93R FOG
APPALACHICOLA  MOCLDY    80  77  90 CALM      29.92F
$$




USA.gov is the U.S. government's official web portal to all federal, state and local government web resources and services.